Regional Weather Roundup
Issued by NWS

Home | Current Version | Previous Version | Text Only | Print | Product List | Glossary Off
Versions: 1 2 3 4 5 6 7 8 9 10 11 12 13 14 15 16 17 18 19 20 21 22 23 24 25 26 27 28 29 30 31 32 33 34 35 36 37 38 39 40 41 42 43 44 45 46 47 48 49

000
ASUS45 KSLC 301210
RWRUT

UTAH REGIONAL WEATHER ROUNDUP
NATIONAL WEATHER SERVICE SALT LAKE CITY UT
600 AM MDT TUE JUN 30 2015

UTZ001>011-023>025-301300-

NORTHERN UTAH

CITY           SKY/WX    TMP DP  RH WIND       PRES   REMARKS
BRIGHAM CITY   PTCLDY    71  51  48 S5        30.06R
HILL AFB       MOCLDY    75  50  41 E12       30.11R
LOGAN          CLEAR     65  55  70 NW3       30.09S
OGDEN          MOCLDY    75  50  41 S8        30.08R
PROVO AIRPORT  CLOUDY    70  50  49 SE3       30.11S
SALT LAKE CITY CLOUDY    79  53  40 E10       30.05R
VERNAL         PTCLDY    67  44  43 W3        30.14S
WENDOVER       PTCLDY    81  46  30 NW6       30.09R
HEBER CITY     MOCLDY    55  50  82 SE3       30.22R
WEST JORDAN    CLEAR     73  48  40 CALM      30.10R

$$

UTZ012>022-026-027-301300-

SOUTHERN/CENTRAL UTAH

CITY           SKY/WX    TMP DP  RH WIND       PRES   REMARKS
BLANDING       CLEAR     70  45  40 CALM      30.29S
BRYCE CANYON   MOCLDY    54  43  66 NW3       30.36F
CEDAR CITY     CLEAR     69  44  40 S7        30.19F
DELTA          MOCLDY    74  42  31 S12       30.11S
HANKSVILLE     PTCLDY    68  39  34 CALM      30.07S
MILFORD        PTCLDY    66  46  48 S7        30.14R
MOAB/CYNLANDS  CLEAR     69  42  37 CALM      30.05R
PRICE          MOCLDY    67  39  35 E3        30.18R
ST GEORGE      PTSUNNY   81  52  36 SE10      30.00R
KANAB          CLEAR     63  52  67 E6        30.21S

$$

REGIONAL REPORTS     COLORADO/ARIZONA

CITY           SKY/WX    TMP DP  RH WIND       PRES   REMARKS
CRAIG, CO      PTCLDY    51  44  77 CALM      30.26R
GRAND JUNCTION CLEAR     72  43  35 E16       30.11R
RIFLE          PTCLDY    58  44  60 E5        30.21R
MONTROSE       CLEAR     61  46  57 S5        30.22S
CORTEZ         CLEAR     59  47  64 E6        30.23S
PAGE, AZ       CLEAR     79  49  34 CALM      30.06R
GRAND CANYON   PTCLDY    50  48  93 NE3       30.29S
KINGMAN        CLOUDY    75  56  51 VRB3      30.01R
FLAGSTAFF      MOCLDY    60  50  69 CALM      30.31S

$$

REGIONAL REPORTS    NEVADA/IDAHO/WYOMING

CITY           SKY/WX    TMP DP  RH WIND       PRES   REMARKS
LAS VEGAS, NV  CLOUDY    95  51  22 S9        29.83F HX  92
ELY            PTCLDY    65  45  48 NE6       30.26S
ELKO           CLEAR     66  48  52 NE3       30.17R
POCATELLO, ID  CLEAR     65  59  81 CALM      30.12R
BURLEY         PTCLDY    64  57  78 E3        30.07R
EVANSTON, WY   MOCLDY    63  44  50 S5        30.31S
ROCK SPRINGS   MOCLDY    61  40  45 E7        30.27R
KEMMERER       MOCLDY    61  43  51 N12       30.32F

$$



USA.gov is the U.S. government's official web portal to all federal, state and local government web resources and services.